EXS7AJ LGSK-EGSS

Flight info

Callsign EXS7AJ
Flight time 3h 12m
Altitude 34000
Route TSL UL617 MAKED DCT LONTA UL608 DOLEV DCT YUYUH DCT PODOB DCT KEB DCT NORPI/N0461F360 DCT MARIL DCT OKSIG DCT KUSIB DCT EBITI DCT NIPEL DCT EVAXI DCT NANIT DCT ERKIR DCT BABEG DCT ADENU L608 LIRSU DCT ARCKY DCT BUB L608 SUMUM Y6 TOSVA
Aircraft B738/M-SDE2E3FGHIRWXY/LB1

Departure

Time 2026-05-09 12:20
Airport Skiathos Island National Airport (LGSK)

Arrival

Time 2026-05-09 15:32
Airport London Stansted Airport (EGSS)
Time Latitude Longitude Altitude Speed Heading
2026-05-09 12:05 39.17909 23.50241 38 ft 0 kts 290°
2026-05-09 12:14 39.17902 23.50267 38 ft 4 kts 289°
2026-05-09 12:14 39.17895 23.50294 37 ft 4 kts 294°
2026-05-09 12:15 39.17880 23.50316 38 ft 4 kts 354°
2026-05-09 12:15 39.17857 23.50312 37 ft 2 kts 19°
2026-05-09 12:15 39.17856 23.50312 37 ft 1 kts 19°
2026-05-09 12:17 39.17883 23.50324 38 ft 9 kts 19°
2026-05-09 12:17 39.17926 23.50387 41 ft 11 kts 76°
2026-05-09 12:18 39.17982 23.50486 44 ft 17 kts 24°
2026-05-09 12:18 39.18120 23.50550 49 ft 25 kts 19°
2026-05-09 12:18 39.18279 23.50621 56 ft 23 kts 19°
2026-05-09 12:18 39.18428 23.50687 60 ft 17 kts 19°
2026-05-09 12:19 39.18514 23.50698 56 ft 8 kts 39°
2026-05-09 12:19 39.18514 23.50723 56 ft 1 kts 181°
2026-05-09 12:19 39.18512 23.50721 54 ft 0 kts 194°
2026-05-09 12:19 39.18357 23.50654 55 ft 63 kts 199°
2026-05-09 12:20 39.17689 23.50357 40 ft 137 kts 199°
2026-05-09 12:20 39.16649 23.49887 414 ft 167 kts 199°
2026-05-09 12:20 39.15498 23.49406 1164 ft 182 kts 197°
2026-05-09 12:20 39.14189 23.48862 1512 ft 211 kts 198°
2026-05-09 12:21 39.12763 23.48251 2044 ft 219 kts 198°
2026-05-09 12:21 39.11235 23.47895 2420 ft 234 kts 171°
2026-05-09 12:21 39.09778 23.48833 2919 ft 242 kts 132°
2026-05-09 12:21 39.09068 23.50775 3446 ft 256 kts 99°
2026-05-09 12:22 39.09192 23.53130 3942 ft 273 kts 73°
2026-05-09 12:22 39.10106 23.55288 4659 ft 279 kts 47°
2026-05-09 12:22 39.11674 23.56728 5453 ft 278 kts 18°
2026-05-09 12:22 39.13557 23.57115 6242 ft 275 kts 352°
2026-05-09 12:23 39.15409 23.56540 6968 ft 275 kts 337°
2026-05-09 12:23 39.17207 23.55653 7719 ft 278 kts 335°
2026-05-09 12:23 39.19008 23.54705 8469 ft 281 kts 334°
2026-05-09 12:23 39.20800 23.53752 9224 ft 284 kts 334°
2026-05-09 12:24 39.22641 23.52775 9973 ft 288 kts 334°
2026-05-09 12:24 39.24521 23.51782 10476 ft 300 kts 334°
2026-05-09 12:24 39.26533 23.50721 10641 ft 324 kts 334°
2026-05-09 12:24 39.28689 23.49589 10813 ft 345 kts 334°
2026-05-09 12:25 39.30981 23.48392 11002 ft 364 kts 334°
2026-05-09 12:25 39.33365 23.47154 11486 ft 373 kts 335°
2026-05-09 12:25 39.35747 23.45924 12155 ft 375 kts 334°
2026-05-09 12:25 39.38171 23.44673 12877 ft 376 kts 334°
2026-05-09 12:26 39.40613 23.43412 13529 ft 379 kts 334°
2026-05-09 12:26 39.43071 23.42140 14141 ft 382 kts 334°
2026-05-09 12:26 39.45538 23.40862 14760 ft 383 kts 334°
2026-05-09 12:26 39.48021 23.39575 15358 ft 385 kts 334°
2026-05-09 12:27 39.50517 23.38279 15922 ft 388 kts 334°
2026-05-09 12:27 39.53032 23.36972 16476 ft 391 kts 334°
2026-05-09 12:27 39.55530 23.35672 17039 ft 394 kts 334°
2026-05-09 12:27 39.58079 23.34345 17561 ft 397 kts 334°
2026-05-09 12:28 39.60656 23.33001 18052 ft 401 kts 334°
2026-05-09 12:28 39.63255 23.31646 18544 ft 404 kts 334°
2026-05-09 12:28 39.65864 23.30285 19039 ft 405 kts 334°
2026-05-09 12:28 39.68477 23.28922 19540 ft 406 kts 334°
2026-05-09 12:29 39.71103 23.27550 20023 ft 408 kts 334°
2026-05-09 12:29 39.73742 23.26170 20497 ft 410 kts 334°
2026-05-09 12:29 39.76387 23.24785 20956 ft 411 kts 334°
2026-05-09 12:29 39.79012 23.23409 21407 ft 413 kts 334°
2026-05-09 12:30 39.81686 23.22008 21815 ft 416 kts 334°
2026-05-09 12:30 39.84386 23.20590 22157 ft 420 kts 335°
2026-05-09 12:30 39.89828 23.17730 23015 ft 423 kts 335°
2026-05-09 12:31 39.92566 23.16290 23416 ft 425 kts 335°
2026-05-09 12:31 39.98078 23.13385 24074 ft 429 kts 335°
2026-05-09 12:31 40.00817 23.11941 24399 ft 431 kts 335°
2026-05-09 12:32 40.03598 23.10472 24728 ft 433 kts 335°
2026-05-09 12:32 40.06399 23.08992 24974 ft 436 kts 335°
2026-05-09 12:32 40.09221 23.07499 25257 ft 438 kts 335°
2026-05-09 12:32 40.12048 23.06002 25586 ft 439 kts 335°
2026-05-09 12:33 40.14882 23.04501 25900 ft 440 kts 335°
2026-05-09 12:33 40.17730 23.02990 26172 ft 442 kts 335°
2026-05-09 12:33 40.20585 23.01475 26464 ft 444 kts 335°
2026-05-09 12:33 40.23413 22.99972 26738 ft 446 kts 335°
2026-05-09 12:34 40.26293 22.98440 27015 ft 447 kts 335°
2026-05-09 12:34 40.29189 22.96898 27189 ft 451 kts 336°
2026-05-09 12:34 40.32108 22.95342 27395 ft 454 kts 336°
2026-05-09 12:34 40.35032 22.93783 27758 ft 453 kts 336°
2026-05-09 12:35 40.37944 22.92230 28227 ft 450 kts 336°
2026-05-09 12:35 40.40832 22.90688 28698 ft 447 kts 336°
2026-05-09 12:35 40.43708 22.89150 29083 ft 446 kts 336°
2026-05-09 12:35 40.46545 22.87631 29431 ft 446 kts 336°
2026-05-09 12:36 40.49418 22.86091 29819 ft 445 kts 336°
2026-05-09 12:36 40.52284 22.84554 30205 ft 444 kts 336°
2026-05-09 12:36 40.55135 22.83023 30549 ft 442 kts 335°
2026-05-09 12:36 40.57976 22.81497 30907 ft 440 kts 335°
2026-05-09 12:37 40.60805 22.79975 31236 ft 439 kts 335°
2026-05-09 12:37 40.63628 22.78456 31571 ft 437 kts 335°
2026-05-09 12:37 40.66440 22.76941 31919 ft 435 kts 335°
2026-05-09 12:37 40.69231 22.75436 32309 ft 432 kts 335°
2026-05-09 12:38 40.71967 22.73959 32675 ft 430 kts 335°
2026-05-09 12:38 40.74739 22.72461 32885 ft 432 kts 335°
2026-05-09 12:38 40.77526 22.70952 33074 ft 434 kts 335°
2026-05-09 12:38 40.80314 22.69443 33396 ft 432 kts 335°
2026-05-09 12:39 40.83081 22.67945 33792 ft 428 kts 334°
2026-05-09 12:39 40.85829 22.66456 34131 ft 426 kts 334°
2026-05-09 12:39 40.88567 22.64970 34353 ft 426 kts 334°
2026-05-09 12:39 40.91312 22.63478 34513 ft 427 kts 334°
2026-05-09 12:40 40.94018 22.62006 34713 ft 427 kts 334°
2026-05-09 12:40 40.96764 22.60511 34884 ft 428 kts 334°
2026-05-09 12:40 40.99529 22.59004 34947 ft 431 kts 334°
2026-05-09 12:40 41.02304 22.57490 35126 ft 431 kts 334°
2026-05-09 12:41 41.05073 22.55980 35387 ft 429 kts 334°
2026-05-09 12:41 41.07830 22.54476 35646 ft 428 kts 334°
2026-05-09 12:41 41.10584 22.52968 35826 ft 428 kts 333°
2026-05-09 12:41 41.13234 22.51208 35972 ft 425 kts 326°
2026-05-09 12:42 41.15641 22.48948 36019 ft 424 kts 319°
2026-05-09 12:42 41.20194 22.44030 36034 ft 424 kts 318°
2026-05-09 12:43 41.24754 22.39087 36039 ft 422 kts 319°
2026-05-09 12:43 41.29315 22.34175 36037 ft 421 kts 319°
2026-05-09 12:44 41.33865 22.29289 36048 ft 420 kts 319°
2026-05-09 12:44 41.38391 22.24425 36049 ft 422 kts 319°
2026-05-09 12:45 41.42970 22.19497 36054 ft 423 kts 319°
2026-05-09 12:45 41.47536 22.14572 36060 ft 422 kts 319°
2026-05-09 12:46 41.52100 22.09640 36058 ft 422 kts 319°
2026-05-09 12:46 41.56637 22.04728 36052 ft 423 kts 318°
2026-05-09 12:47 41.61203 21.99774 36049 ft 423 kts 318°
2026-05-09 12:47 41.65770 21.94811 36051 ft 423 kts 318°
2026-05-09 12:48 41.70341 21.89834 36063 ft 424 kts 318°
2026-05-09 12:48 41.74888 21.84874 36060 ft 425 kts 318°
2026-05-09 12:49 41.79473 21.79862 36073 ft 426 kts 318°
2026-05-09 12:49 41.84057 21.74843 36082 ft 426 kts 318°
2026-05-09 12:50 41.88649 21.69804 36077 ft 427 kts 318°
2026-05-09 12:50 41.93215 21.64785 36076 ft 427 kts 318°
2026-05-09 12:51 41.97811 21.59723 36075 ft 427 kts 318°
2026-05-09 12:51 42.02400 21.54659 36062 ft 427 kts 318°
2026-05-09 12:52 42.06994 21.49578 36072 ft 428 kts 318°
2026-05-09 12:52 42.11571 21.44507 36061 ft 430 kts 318°
2026-05-09 12:53 42.16139 21.39337 36044 ft 427 kts 313°
2026-05-09 12:53 42.20002 21.33346 36093 ft 423 kts 308°
2026-05-09 12:54 42.23785 21.27270 36067 ft 423 kts 308°
2026-05-09 12:54 42.27557 21.21242 36082 ft 423 kts 308°
2026-05-09 12:55 42.31363 21.15177 36096 ft 423 kts 308°
2026-05-09 12:55 42.35170 21.09108 36100 ft 423 kts 308°
2026-05-09 12:56 42.38976 21.03027 36095 ft 423 kts 308°
2026-05-09 12:56 42.42750 20.96985 36104 ft 423 kts 308°
2026-05-09 12:57 42.46543 20.90900 36100 ft 423 kts 308°
2026-05-09 12:57 42.50330 20.84812 36096 ft 423 kts 308°
2026-05-09 12:58 42.54113 20.78717 36113 ft 422 kts 308°
2026-05-09 12:58 42.57891 20.72618 36093 ft 422 kts 308°
2026-05-09 12:59 42.61639 20.66557 36091 ft 422 kts 308°
2026-05-09 12:59 42.65403 20.60454 36082 ft 422 kts 308°
2026-05-09 13:00 42.69168 20.54339 36081 ft 421 kts 308°
2026-05-09 13:00 42.72918 20.48235 36084 ft 420 kts 308°
2026-05-09 13:01 42.76629 20.42181 36088 ft 419 kts 307°
2026-05-09 13:01 42.80353 20.36094 36094 ft 417 kts 307°
2026-05-09 13:02 42.84066 20.30013 36092 ft 417 kts 307°
2026-05-09 13:02 42.87754 20.23962 36083 ft 418 kts 307°
2026-05-09 13:03 42.91466 20.17859 36077 ft 418 kts 307°
2026-05-09 13:03 42.95175 20.11747 36078 ft 417 kts 307°
2026-05-09 13:04 42.98870 20.05645 36065 ft 416 kts 307°
2026-05-09 13:04 43.02527 19.99593 36070 ft 415 kts 307°
2026-05-09 13:05 43.06194 19.93513 36075 ft 414 kts 307°
2026-05-09 13:05 43.09847 19.87442 36079 ft 413 kts 307°
2026-05-09 13:06 43.13494 19.81369 36085 ft 413 kts 307°
2026-05-09 13:06 43.17112 19.75332 36069 ft 412 kts 307°
2026-05-09 13:07 43.20735 19.69274 36080 ft 410 kts 307°
2026-05-09 13:07 43.24338 19.63239 36067 ft 407 kts 307°
2026-05-09 13:08 43.27911 19.57238 36072 ft 405 kts 307°
2026-05-09 13:08 43.31462 19.51264 36090 ft 404 kts 307°
2026-05-09 13:09 43.34985 19.45321 36102 ft 404 kts 307°
2026-05-09 13:09 43.38531 19.39328 36097 ft 404 kts 307°
2026-05-09 13:10 43.42078 19.33320 36090 ft 405 kts 307°
2026-05-09 13:10 43.45602 19.27340 36085 ft 405 kts 307°
2026-05-09 13:11 43.49142 19.21320 36096 ft 404 kts 307°
2026-05-09 13:11 43.52667 19.15315 36092 ft 402 kts 307°
2026-05-09 13:12 43.56176 19.09325 36088 ft 400 kts 307°
2026-05-09 13:12 43.59665 19.03359 36100 ft 399 kts 306°
2026-05-09 13:13 43.63121 18.97433 36100 ft 399 kts 306°
2026-05-09 13:13 43.66598 18.91460 36103 ft 399 kts 306°
2026-05-09 13:14 43.70073 18.85478 36103 ft 400 kts 306°
2026-05-09 13:16 43.83891 18.61572 36099 ft 395 kts 306°
2026-05-09 13:16 43.87314 18.55617 36107 ft 395 kts 306°
2026-05-09 13:17 43.90711 18.49699 36109 ft 395 kts 306°
2026-05-09 13:17 43.94152 18.43757 36104 ft 396 kts 308°
2026-05-09 13:18 43.97803 18.38014 36111 ft 398 kts 309°
2026-05-09 13:18 44.01509 18.32287 36116 ft 400 kts 309°
2026-05-09 13:19 44.05214 18.26506 36102 ft 401 kts 308°
2026-05-09 13:19 44.08890 18.20730 36097 ft 402 kts 308°
2026-05-09 13:20 44.12591 18.14897 36098 ft 403 kts 308°
2026-05-09 13:20 44.16297 18.09046 36094 ft 403 kts 308°
2026-05-09 13:21 44.20001 18.03186 36087 ft 403 kts 308°
2026-05-09 13:21 44.23666 17.97361 36090 ft 402 kts 308°
2026-05-09 13:22 44.27332 17.91494 36089 ft 401 kts 308°
2026-05-09 13:22 44.30987 17.85632 36085 ft 400 kts 308°
2026-05-09 13:23 44.40017 17.71106 36090 ft 395 kts 307°
2026-05-09 13:24 44.43615 17.65296 36071 ft 395 kts 307°
2026-05-09 13:24 44.47214 17.59474 36064 ft 396 kts 307°
2026-05-09 13:25 44.50211 17.54615 36074 ft 397 kts 307°
2026-05-09 13:26 44.56213 17.44863 36065 ft 397 kts 307°
2026-05-09 13:26 44.59820 17.38986 36068 ft 397 kts 307°
2026-05-09 13:27 44.63423 17.33105 36069 ft 397 kts 307°
2026-05-09 13:27 44.66438 17.28230 36072 ft 398 kts 307°
2026-05-09 13:28 44.70086 17.22362 36087 ft 399 kts 307°
2026-05-09 13:28 44.73729 17.16481 36074 ft 399 kts 307°
2026-05-09 13:29 44.77347 17.10623 36064 ft 399 kts 307°
2026-05-09 13:29 44.80980 17.04727 36073 ft 398 kts 307°
2026-05-09 13:30 44.84600 16.98824 36069 ft 397 kts 307°
2026-05-09 13:30 44.88134 16.92849 36074 ft 396 kts 306°
2026-05-09 13:31 44.91644 16.86857 36073 ft 396 kts 306°
2026-05-09 13:31 44.95136 16.80899 36065 ft 397 kts 306°
2026-05-09 13:32 44.98661 16.74885 36059 ft 398 kts 306°
2026-05-09 13:32 45.03962 16.65824 36061 ft 399 kts 306°
2026-05-09 13:33 45.07498 16.59762 36052 ft 400 kts 306°
2026-05-09 13:33 45.11006 16.53737 36059 ft 399 kts 306°
2026-05-09 13:34 45.14531 16.47669 36055 ft 399 kts 306°
2026-05-09 13:34 45.18163 16.41709 36073 ft 400 kts 308°
2026-05-09 13:35 45.21897 16.35841 36068 ft 401 kts 308°
2026-05-09 13:35 45.25601 16.29994 36059 ft 401 kts 308°
2026-05-09 13:36 45.29318 16.24076 36055 ft 402 kts 307°
2026-05-09 13:36 45.33028 16.18139 36051 ft 402 kts 307°
2026-05-09 13:37 45.36730 16.12197 36053 ft 402 kts 307°
2026-05-09 13:37 45.40405 16.06286 36057 ft 401 kts 307°
2026-05-09 13:38 45.44096 16.00337 36078 ft 401 kts 307°
2026-05-09 13:38 45.47790 15.94370 36054 ft 402 kts 307°
2026-05-09 13:39 45.51488 15.88383 36053 ft 403 kts 307°
2026-05-09 13:39 45.55172 15.82407 36049 ft 404 kts 307°
2026-05-09 13:40 45.58887 15.76366 36054 ft 405 kts 307°
2026-05-09 13:40 45.62602 15.70314 36037 ft 405 kts 307°
2026-05-09 13:41 45.66311 15.64258 36039 ft 404 kts 307°
2026-05-09 13:41 45.70006 15.58212 36043 ft 403 kts 307°
2026-05-09 13:42 45.73665 15.52213 36048 ft 402 kts 307°
2026-05-09 13:42 45.77338 15.46175 36035 ft 402 kts 307°
2026-05-09 13:43 45.80999 15.40145 36052 ft 400 kts 307°
2026-05-09 13:43 45.84650 15.34116 36038 ft 400 kts 307°
2026-05-09 13:44 45.88270 15.28128 36037 ft 399 kts 307°
2026-05-09 13:44 45.91903 15.22103 36042 ft 399 kts 307°
2026-05-09 13:45 45.95532 15.16074 36058 ft 398 kts 306°
2026-05-09 13:45 45.99173 15.10007 36049 ft 404 kts 307°
2026-05-09 13:46 46.02880 15.03820 36036 ft 410 kts 307°
2026-05-09 13:46 46.06531 14.97579 36024 ft 409 kts 302°
2026-05-09 13:47 46.09683 14.90779 36026 ft 408 kts 300°
2026-05-09 13:47 46.12753 14.83909 36035 ft 407 kts 299°
2026-05-09 13:48 46.15827 14.77079 36034 ft 405 kts 300°
2026-05-09 13:48 46.18879 14.70337 36043 ft 403 kts 300°
2026-05-09 13:49 46.21936 14.63583 36046 ft 401 kts 300°
2026-05-09 13:49 46.24980 14.56846 36064 ft 400 kts 300°
2026-05-09 13:50 46.28042 14.50045 36063 ft 407 kts 300°
2026-05-09 13:50 46.31126 14.43180 36052 ft 411 kts 300°
2026-05-09 13:51 46.34238 14.36241 36042 ft 412 kts 300°
2026-05-09 13:51 46.37350 14.29284 36036 ft 412 kts 300°
2026-05-09 13:52 46.40448 14.22339 36049 ft 410 kts 300°
2026-05-09 13:52 46.43518 14.15440 36035 ft 410 kts 300°
2026-05-09 13:53 46.46606 14.08484 36124 ft 412 kts 300°
2026-05-09 13:53 46.48152 14.04995 36378 ft 410 kts 300°
2026-05-09 13:53 46.49773 14.01589 36641 ft 410 kts 304°
2026-05-09 13:54 46.51564 13.98368 36865 ft 410 kts 306°
2026-05-09 13:54 46.53391 13.95187 37054 ft 411 kts 306°
2026-05-09 13:54 46.57068 13.88797 37142 ft 418 kts 306°
2026-05-09 13:55 46.58919 13.85546 37309 ft 417 kts 306°
2026-05-09 13:55 46.60758 13.82295 37596 ft 415 kts 306°
2026-05-09 13:55 46.62583 13.79057 37785 ft 414 kts 306°
2026-05-09 13:55 46.64407 13.75807 37877 ft 415 kts 306°
2026-05-09 13:56 46.66229 13.72555 38009 ft 414 kts 306°
2026-05-09 13:56 46.68052 13.69298 38042 ft 416 kts 306°
2026-05-09 13:56 46.71717 13.62738 38046 ft 418 kts 306°
2026-05-09 13:57 46.75387 13.56160 38060 ft 418 kts 306°
2026-05-09 13:57 46.79020 13.49598 38051 ft 419 kts 305°
2026-05-09 13:58 46.82609 13.42893 38060 ft 419 kts 304°
2026-05-09 13:58 46.86183 13.36155 38054 ft 420 kts 304°
2026-05-09 13:59 46.89766 13.29404 38073 ft 420 kts 304°
2026-05-09 13:59 46.93354 13.22643 38059 ft 421 kts 304°
2026-05-09 14:00 46.96334 13.17016 38063 ft 420 kts 304°
2026-05-09 14:00 47.00470 13.09192 38071 ft 415 kts 304°
2026-05-09 14:01 47.03958 13.02579 38084 ft 406 kts 304°
2026-05-09 14:01 47.07408 12.96016 38081 ft 408 kts 304°
2026-05-09 14:02 47.10873 12.89412 38049 ft 410 kts 304°
2026-05-09 14:02 47.14335 12.82790 38107 ft 413 kts 304°
2026-05-09 14:03 47.17861 12.76033 38100 ft 420 kts 303°
2026-05-09 14:03 47.21430 12.69177 38081 ft 423 kts 304°
2026-05-09 14:04 47.25018 12.62270 38069 ft 426 kts 304°
2026-05-09 14:04 47.28591 12.55378 38069 ft 419 kts 304°
2026-05-09 14:05 47.32080 12.48631 38076 ft 414 kts 304°
2026-05-09 14:05 47.35555 12.41887 38079 ft 413 kts 304°
2026-05-09 14:06 47.39019 12.35148 38078 ft 413 kts 303°
2026-05-09 14:06 47.42210 12.28045 38075 ft 417 kts 300°
2026-05-09 14:07 47.45308 12.20738 38082 ft 422 kts 300°
2026-05-09 14:07 47.48460 12.13359 38067 ft 426 kts 300°
2026-05-09 14:08 47.51612 12.06016 38057 ft 423 kts 300°
2026-05-09 14:08 47.54794 11.98792 38071 ft 416 kts 302°
2026-05-09 14:09 47.58236 11.91909 38070 ft 416 kts 304°
2026-05-09 14:09 47.61733 11.85065 38070 ft 418 kts 304°
2026-05-09 14:10 47.66930 11.74771 38073 ft 418 kts 304°
2026-05-09 14:11 47.70399 11.67834 38065 ft 419 kts 304°
2026-05-09 14:11 47.73870 11.60865 38069 ft 420 kts 303°
2026-05-09 14:12 47.77350 11.53861 38067 ft 422 kts 303°
2026-05-09 14:12 47.80810 11.46879 38071 ft 423 kts 303°
2026-05-09 14:13 47.84300 11.39820 38066 ft 424 kts 303°
2026-05-09 14:15 47.98272 11.11374 38066 ft 427 kts 304°
2026-05-09 14:15 48.01771 11.04204 38068 ft 427 kts 303°
2026-05-09 14:16 48.05262 10.97030 38066 ft 426 kts 303°
2026-05-09 14:16 48.08742 10.89861 38072 ft 426 kts 303°
2026-05-09 14:17 48.12188 10.82742 38075 ft 425 kts 303°
2026-05-09 14:17 48.15649 10.75576 38093 ft 424 kts 304°
2026-05-09 14:18 48.19099 10.68413 38074 ft 424 kts 304°
2026-05-09 14:18 48.22542 10.61244 38069 ft 423 kts 304°
2026-05-09 14:19 48.25977 10.54071 38076 ft 423 kts 303°
2026-05-09 14:19 48.29384 10.46941 38064 ft 423 kts 303°
2026-05-09 14:20 48.32811 10.39750 38060 ft 423 kts 303°
2026-05-09 14:20 48.36234 10.32548 38061 ft 423 kts 303°
2026-05-09 14:21 48.41357 10.21732 38065 ft 423 kts 303°
2026-05-09 14:21 48.44770 10.14503 38062 ft 424 kts 303°
2026-05-09 14:22 48.48159 10.07305 38068 ft 424 kts 303°
2026-05-09 14:22 48.51569 10.00042 38061 ft 425 kts 303°
2026-05-09 14:23 48.54980 9.92759 38054 ft 425 kts 303°
2026-05-09 14:23 48.58392 9.85454 38058 ft 426 kts 303°
2026-05-09 14:24 48.61786 9.78167 38060 ft 427 kts 303°
2026-05-09 14:24 48.65205 9.70808 38054 ft 428 kts 302°
2026-05-09 14:25 48.68674 9.63483 38058 ft 429 kts 305°
2026-05-09 14:25 48.72353 9.56344 38045 ft 430 kts 306°
2026-05-09 14:26 48.76068 9.49229 38054 ft 430 kts 306°
2026-05-09 14:26 48.79737 9.42131 38049 ft 431 kts 306°
2026-05-09 14:27 48.83421 9.34945 38029 ft 431 kts 305°
2026-05-09 14:27 48.87095 9.27742 38027 ft 432 kts 305°
2026-05-09 14:28 48.90767 9.20523 38028 ft 432 kts 305°
2026-05-09 14:28 48.94435 9.13295 38054 ft 432 kts 306°
2026-05-09 14:29 48.98103 9.06045 38043 ft 432 kts 305°
2026-05-09 14:29 49.01747 8.98825 38041 ft 433 kts 305°
2026-05-09 14:30 49.05415 8.91538 38038 ft 433 kts 305°
2026-05-09 14:30 49.09076 8.84244 38054 ft 433 kts 305°
2026-05-09 14:31 49.12737 8.76930 38044 ft 434 kts 304°
2026-05-09 14:31 49.16398 8.69597 38042 ft 434 kts 304°
2026-05-09 14:32 49.20032 8.62297 38039 ft 434 kts 304°
2026-05-09 14:32 49.23689 8.54933 38048 ft 435 kts 305°
2026-05-09 14:33 49.27344 8.47550 38042 ft 435 kts 305°
2026-05-09 14:33 49.30996 8.40153 38039 ft 435 kts 305°
2026-05-09 14:34 49.34645 8.32741 38037 ft 435 kts 305°
2026-05-09 14:34 49.38266 8.25366 38037 ft 436 kts 305°
2026-05-09 14:35 49.41907 8.17930 38042 ft 436 kts 304°
2026-05-09 14:35 49.45545 8.10479 38037 ft 436 kts 304°
2026-05-09 14:36 49.49175 8.03024 38033 ft 436 kts 304°
2026-05-09 14:36 49.52778 7.95603 38039 ft 436 kts 304°
2026-05-09 14:37 49.56406 7.88110 38040 ft 437 kts 304°
2026-05-09 14:37 49.59947 7.80501 38035 ft 437 kts 301°
2026-05-09 14:38 49.63263 7.72657 38042 ft 437 kts 301°
2026-05-09 14:38 49.66557 7.64769 38047 ft 438 kts 300°
2026-05-09 14:39 49.69856 7.56925 38043 ft 439 kts 300°
2026-05-09 14:39 49.73192 7.49027 38062 ft 439 kts 301°
2026-05-09 14:40 49.76536 7.41102 38052 ft 440 kts 301°
2026-05-09 14:40 49.79880 7.33155 38051 ft 441 kts 301°
2026-05-09 14:41 49.83219 7.25196 38058 ft 441 kts 300°
2026-05-09 14:41 49.86535 7.17267 38056 ft 441 kts 300°
2026-05-09 14:42 49.89869 7.09268 38044 ft 442 kts 300°
2026-05-09 14:42 49.93201 7.01250 38077 ft 442 kts 300°
2026-05-09 14:43 49.96530 6.93216 38049 ft 442 kts 300°
2026-05-09 14:43 49.99853 6.85169 38056 ft 443 kts 300°
2026-05-09 14:44 50.03155 6.77153 38053 ft 444 kts 300°
2026-05-09 14:44 50.06477 6.69060 38040 ft 444 kts 300°
2026-05-09 14:45 50.09796 6.60951 38054 ft 444 kts 300°
2026-05-09 14:45 50.13111 6.52826 38035 ft 444 kts 300°
2026-05-09 14:46 50.16396 6.44750 38026 ft 444 kts 300°
2026-05-09 14:46 50.19701 6.36600 38028 ft 445 kts 299°
2026-05-09 14:47 50.23002 6.28435 38039 ft 445 kts 299°
2026-05-09 14:47 50.26303 6.20243 38048 ft 445 kts 299°
2026-05-09 14:48 50.29575 6.12097 38040 ft 446 kts 299°
2026-05-09 14:48 50.32871 6.03868 38044 ft 446 kts 299°
2026-05-09 14:49 50.36162 5.95622 38049 ft 447 kts 298°
2026-05-09 14:49 50.39454 5.87352 38051 ft 448 kts 298°
2026-05-09 14:50 50.42745 5.79056 38049 ft 448 kts 298°
2026-05-09 14:50 50.46009 5.70801 38047 ft 449 kts 298°
2026-05-09 14:51 50.49292 5.62472 38053 ft 449 kts 298°
2026-05-09 14:51 50.52571 5.54129 38060 ft 449 kts 298°
2026-05-09 14:52 50.55843 5.45772 38052 ft 449 kts 298°
2026-05-09 14:52 50.59089 5.37459 38060 ft 449 kts 298°
2026-05-09 14:53 50.62352 5.29073 38055 ft 450 kts 298°
2026-05-09 14:53 50.65615 5.20660 38068 ft 450 kts 298°
2026-05-09 14:54 50.68869 5.12244 38082 ft 450 kts 297°
2026-05-09 14:54 50.72097 5.03868 38053 ft 450 kts 297°
2026-05-09 14:55 50.75342 4.95421 38058 ft 450 kts 297°
2026-05-09 14:55 50.78583 4.86954 38074 ft 450 kts 297°
2026-05-09 14:56 50.81818 4.78480 38049 ft 450 kts 297°
2026-05-09 14:56 50.85047 4.69988 38046 ft 450 kts 297°
2026-05-09 14:57 50.88250 4.61540 38082 ft 451 kts 297°
2026-05-09 14:57 50.91473 4.53010 38072 ft 451 kts 297°
2026-05-09 14:58 50.94692 4.44464 38075 ft 452 kts 297°
2026-05-09 14:58 50.97885 4.35959 38066 ft 452 kts 297°
2026-05-09 14:59 51.01094 4.27381 38058 ft 452 kts 297°
2026-05-09 14:59 51.04300 4.18782 38051 ft 452 kts 297°
2026-05-09 15:00 51.07500 4.10163 38058 ft 453 kts 296°
2026-05-09 15:00 51.10699 4.01530 38049 ft 453 kts 296°
2026-05-09 15:01 51.15466 3.88609 38035 ft 454 kts 296°
2026-05-09 15:02 51.18654 3.79929 38068 ft 453 kts 296°
2026-05-09 15:02 51.21832 3.71245 38043 ft 454 kts 296°
2026-05-09 15:03 51.25005 3.62545 38039 ft 453 kts 296°
2026-05-09 15:03 51.28156 3.53903 38055 ft 454 kts 297°
2026-05-09 15:04 51.31453 3.45261 37596 ft 461 kts 297°
2026-05-09 15:04 51.33139 3.40906 37109 ft 459 kts 297°
2026-05-09 15:06 51.44828 3.10286 32591 ft 468 kts 297°
2026-05-09 15:06 51.46516 3.05816 31911 ft 469 kts 297°
2026-05-09 15:06 51.48195 3.01366 31437 ft 464 kts 297°
2026-05-09 15:06 51.49861 2.96948 30950 ft 461 kts 297°
2026-05-09 15:07 51.51513 2.92557 30466 ft 458 kts 297°
2026-05-09 15:07 51.53150 2.88196 29988 ft 454 kts 297°
2026-05-09 15:07 51.54750 2.83926 29430 ft 450 kts 296°
2026-05-09 15:07 51.56356 2.79630 28890 ft 446 kts 296°
2026-05-09 15:08 51.57946 2.75372 28403 ft 442 kts 296°
2026-05-09 15:08 51.61069 2.66985 27428 ft 433 kts 296°
2026-05-09 15:08 51.62606 2.62846 26951 ft 429 kts 296°
2026-05-09 15:09 51.64126 2.58747 26489 ft 425 kts 296°
2026-05-09 15:10 51.74362 2.30964 23216 ft 402 kts 297°
2026-05-09 15:11 51.75781 2.27087 22719 ft 404 kts 297°
2026-05-09 15:11 51.77226 2.23126 22244 ft 414 kts 297°
2026-05-09 15:11 51.78672 2.19160 21757 ft 416 kts 297°
2026-05-09 15:11 51.80140 2.15134 21274 ft 416 kts 297°
2026-05-09 15:12 51.81600 2.11127 20790 ft 411 kts 297°
2026-05-09 15:12 51.83040 2.07167 20319 ft 406 kts 298°
2026-05-09 15:12 51.84464 2.03246 19855 ft 402 kts 298°
2026-05-09 15:12 51.85862 1.99384 19400 ft 398 kts 298°
2026-05-09 15:13 51.87255 1.95534 18946 ft 394 kts 298°
2026-05-09 15:13 51.88634 1.91716 18503 ft 392 kts 298°
2026-05-09 15:13 51.90000 1.87923 18023 ft 389 kts 298°
2026-05-09 15:13 51.91284 1.84174 17668 ft 383 kts 296°
2026-05-09 15:14 51.92534 1.80383 17326 ft 383 kts 296°
2026-05-09 15:14 51.93780 1.76555 16985 ft 385 kts 296°
2026-05-09 15:14 51.95030 1.72714 16650 ft 384 kts 296°
2026-05-09 15:14 51.96273 1.68905 16309 ft 381 kts 296°
2026-05-09 15:15 51.97513 1.65115 15977 ft 379 kts 296°
2026-05-09 15:15 51.98331 1.62617 15759 ft 378 kts 296°
2026-05-09 15:15 51.99979 1.57585 15327 ft 376 kts 296°
2026-05-09 15:15 52.01187 1.53893 15004 ft 375 kts 297°
2026-05-09 15:16 52.02408 1.50157 14679 ft 374 kts 297°
2026-05-09 15:16 52.03625 1.46425 14336 ft 373 kts 297°
2026-05-09 15:16 52.04837 1.42705 14025 ft 372 kts 297°
2026-05-09 15:16 52.06045 1.38991 13676 ft 371 kts 296°
2026-05-09 15:17 52.07243 1.35306 13315 ft 368 kts 296°
2026-05-09 15:17 52.08436 1.31629 12979 ft 365 kts 296°
2026-05-09 15:17 52.09614 1.27989 12654 ft 363 kts 296°
2026-05-09 15:17 52.10759 1.24410 12339 ft 361 kts 294°
2026-05-09 15:18 52.11413 1.20503 12040 ft 358 kts 273°
2026-05-09 15:18 52.11209 1.16522 11789 ft 348 kts 256°
2026-05-09 15:18 52.10611 1.12816 11533 ft 330 kts 254°
2026-05-09 15:18 52.10004 1.09312 11310 ft 314 kts 254°
2026-05-09 15:19 52.09422 1.05979 11108 ft 300 kts 254°
2026-05-09 15:19 52.08865 1.02767 10899 ft 291 kts 254°
2026-05-09 15:19 52.08327 0.99619 10694 ft 288 kts 254°
2026-05-09 15:19 52.07804 0.96530 10487 ft 286 kts 254°
2026-05-09 15:20 52.07359 0.93403 10388 ft 281 kts 259°
2026-05-09 15:20 52.06704 0.87141 10056 ft 282 kts 260°
2026-05-09 15:20 52.06381 0.83997 9870 ft 282 kts 260°
2026-05-09 15:21 52.06052 0.80846 9674 ft 283 kts 260°
2026-05-09 15:21 52.05716 0.77691 9472 ft 284 kts 260°
2026-05-09 15:21 52.05375 0.74525 9278 ft 285 kts 260°
2026-05-09 15:21 52.05030 0.71357 9094 ft 285 kts 260°
2026-05-09 15:22 52.04687 0.68227 8907 ft 286 kts 260°
2026-05-09 15:22 52.04337 0.65051 8721 ft 286 kts 259°
2026-05-09 15:22 52.03986 0.61882 8530 ft 284 kts 259°
2026-05-09 15:22 52.03638 0.58747 8341 ft 280 kts 259°
2026-05-09 15:23 52.03293 0.55653 8142 ft 277 kts 259°
2026-05-09 15:23 52.02949 0.52576 7981 ft 277 kts 259°
2026-05-09 15:23 52.02605 0.49503 7808 ft 276 kts 259°
2026-05-09 15:23 52.02259 0.46429 7617 ft 277 kts 260°
2026-05-09 15:24 52.01911 0.43338 7451 ft 280 kts 260°
2026-05-09 15:24 52.01560 0.40222 7275 ft 281 kts 260°
2026-05-09 15:24 52.01208 0.37101 7083 ft 282 kts 260°
2026-05-09 15:24 52.00857 0.34012 6909 ft 282 kts 260°
2026-05-09 15:25 52.00499 0.30875 6707 ft 282 kts 260°
2026-05-09 15:25 52.00037 0.27784 6360 ft 284 kts 245°
2026-05-09 15:25 51.98834 0.25279 6021 ft 283 kts 222°
2026-05-09 15:26 51.95917 0.20948 5320 ft 284 kts 221°
2026-05-09 15:26 51.94477 0.18799 4960 ft 279 kts 222°
2026-05-09 15:26 51.93070 0.16687 4584 ft 273 kts 222°
2026-05-09 15:26 51.91712 0.14641 4227 ft 265 kts 221°
2026-05-09 15:27 51.90399 0.12658 3849 ft 252 kts 221°
2026-05-09 15:27 51.89133 0.10748 3524 ft 245 kts 221°
2026-05-09 15:27 51.87919 0.08911 3223 ft 232 kts 221°
2026-05-09 15:27 51.86773 0.07183 2981 ft 220 kts 221°
2026-05-09 15:28 51.85672 0.05518 2735 ft 213 kts 220°
2026-05-09 15:28 51.84484 0.04222 2510 ft 203 kts 190°
2026-05-09 15:28 51.83219 0.04548 2519 ft 179 kts 149°
2026-05-09 15:28 51.82226 0.05638 2486 ft 171 kts 133°
2026-05-09 15:29 51.81422 0.07008 2496 ft 167 kts 129°
2026-05-09 15:29 51.80665 0.08385 2440 ft 159 kts 121°
2026-05-09 15:29 51.80431 0.10026 2368 ft 153 kts 73°
2026-05-09 15:29 51.80939 0.11503 2257 ft 151 kts 55°
2026-05-09 15:30 51.81601 0.12821 2052 ft 151 kts 52°
2026-05-09 15:30 51.82319 0.14117 1854 ft 156 kts 48°
2026-05-09 15:30 51.83093 0.15341 1624 ft 154 kts 45°
2026-05-09 15:30 51.83866 0.16509 1395 ft 151 kts 46°
2026-05-09 15:31 51.84629 0.17654 1221 ft 148 kts 46°
2026-05-09 15:31 51.85387 0.18788 1046 ft 152 kts 45°
2026-05-09 15:31 51.86175 0.19971 824 ft 157 kts 45°
2026-05-09 15:31 51.86976 0.21184 577 ft 157 kts 47°
2026-05-09 15:32 51.87771 0.22379 368 ft 154 kts 46°
2026-05-09 15:32 51.88482 0.23467 354 ft 122 kts 41°
2026-05-09 15:32 51.88994 0.24227 354 ft 78 kts 43°
2026-05-09 15:32 51.89278 0.24648 357 ft 32 kts 42°
2026-05-09 15:33 51.89424 0.24868 353 ft 23 kts 43°
2026-05-09 15:33 51.89486 0.24988 360 ft 13 kts 77°
2026-05-09 15:33 51.89433 0.25125 348 ft 17 kts 134°
2026-05-09 15:33 51.89380 0.25216 356 ft 9 kts 133°
2026-05-09 15:34 51.89368 0.25238 348 ft 1 kts 133°
2026-05-09 15:34 51.89367 0.25240 348 ft 0 kts 133°
2026-05-09 15:34 51.89366 0.25242 348 ft 1 kts 133°
2026-05-09 15:35 51.89354 0.25256 352 ft 3 kts 147°
2026-05-09 15:35 51.89324 0.25260 348 ft 5 kts 193°